Wind_Speed
40 37 35 33 36 38 37 31 28 25 24 25 27 21 16 15 12 5 3 5 8 7 6 6 7 4 4 4 4 5 4 4 4 4 6 8 10 12 13 14 15 15 15 14 14 14 15 16 17
42 40 37 36 35 36 37 33 32 28 30 25 26 24 21 15 13 9 8 9 10 10 10 9 10 10 7 8 6 5 5 5 6 7 8 9 9 10 10 11 13 13 13 13 14 15 16 16 17
45 42 40 38 35 33 37 36 33 33 31 27 26 26 24 18 13 12 13 13 12 15 13 10 11 13 11 11 11 10 10 10 10 10 10 11 12 11 11 11 11 12 12 12 12 13 15 15 16
47 45 43 39 33 33 37 39 37 35 38 33 27 24 24 21 16 16 19 16 15 13 13 13 14 14 13 12 12 12 12 13 13 11 12 11 12 12 11 12 12 13 14 13 13 14 14 14 15
48 49 45 40 36 34 36 41 42 41 40 39 37 29 23 20 19 16 16 17 16 15 14 15 16 16 15 15 15 14 15 15 16 17 17 18 17 14 13 13 12 13 14 14 14 14 14 15 16
51 51 48 41 37 43 44 44 46 44 43 40 37 34 31 25 20 19 17 17 21 20 16 17 17 18 17 18 17 18 18 19 19 19 19 18 17 16 14 13 13 14 16 16 17 15 15 15 15
55 52 50 44 40 41 40 48 49 48 48 45 42 38 36 29 27 22 24 24 20 21 23 21 20 20 20 21 21 21 21 22 22 23 22 21 20 18 16 16 17 16 17 18 19 17 16 16 18
56 56 52 47 42 41 39 44 49 49 50 49 45 43 37 30 27 26 17 23 24 20 18 18 21 22 23 23 24 25 25 25 24 24 24 23 21 20 20 20 19 19 20 21 22 22 21 21 21
62 55 54 50 43 41 39 43 50 48 49 50 48 45 41 40 35 30 20 13 16 20 23 25 25 26 26 27 26 26 26 26 26 27 27 27 26 26 23 23 23 23 22 24 26 26 24 23 23
47 55 52 48 43 41 44 42 52 50 50 50 48 48 45 43 41 38 22 16 19 27 29 26 24 25 25 26 26 25 25 26 27 29 29 30 29 28 26 27 30 25 29 27 31 33 29 28 28
39 45 51 45 44 48 47 41 51 52 52 51 52 50 46 42 38 36 33 26 27 29 29 29 28 28 29 29 30 29 27 28 28 28 28 28 29 28 27 27 28 37 29 33 32 36 37 36 31
45 37 41 55 49 52 48 50 47 52 51 50 47 45 43 42 39 37 35 36 31 31 36 36 32 32 32 33 33 33 32 33 32 33 33 33 33 34 33 33 32 33 33 36 37 38 36 37 34
34 38 41 36 36 44 50 49 43 42 40 43 39 40 37 38 38 37 37 37 37 35 36 35 35 34 34 34 36 36 38 37 39 39 40 40 38 38 38 37 38 38 39 36 34 37 37 38 40
37 38 40 40 38 35 39 40 39 33 34 36 37 35 36 39 40 40 40 42 42 41 38 38 35 34 36 37 38 39 41 41 41 41 41 43 41 41 44 42 40 41 43 41 36 40 41 39 38
45 43 41 39 39 41 41 38 38 36 37 36 38 42 44 45 46 46 46 47 46 44 42 38 35 32 35 36 36 36 35 39 40 40 40 40 45 47 42 44 44 44 48 45 45 44 44 45 44
47 46 45 45 45 46 44 40 38 37 38 40 45 48 49 51 51 50 50 48 47 47 45 42 40 39 35 33 33 33 34 36 34 37 37 41 40 42 38 44 48 48 42 44 51 55 52 49 47
45 43 41 39 41 42 44 43 40 42 43 45 49 50 49 51 52 49 46 47 46 48 46 45 43 43 41 36 37 36 34 34 35 38 40 39 39 43 41 40 45 47 47 50 50 53 57 52 49
36 32 32 32 35 36 40 44 40 42 48 49 48 46 45 50 50 51 48 49 48 48 49 49 46 44 40 37 36 37 37 37 39 41 40 42 43 44 45 46 47 49 50 51 52 52 53 50 50
31 32 34 34 36 41 44 47 45 44 47 47 45 43 46 50 53 49 49 49 49 49 47 46 45 42 38 36 36 36 36 38 37 40 42 44 45 47 47 46 48 48 48 48 50 52 53 52 52
38 39 37 35 37 44 45 47 47 44 46 45 42 41 42 46 41 44 47 47 47 45 43 43 42 41 41 40 41 43 43 43 44 45 47 49 50 51 52 53 52 51 50 51 51 54 54 53 53
36 36 34 34 36 42 43 44 43 42 38 38 38 38 39 37 39 42 43 44 46 45 42 42 43 43 41 39 36 38 38 38 39 40 41 41 43 43 43 45 45 46 46 48 51 53 54 53 52
36 37 36 35 35 38 37 38 37 38 36 37 37 35 36 33 36 40 43 43 43 39 38 35 34 32 33 35 37 38 40 41 43 44 44 46 47 48 48 47 48 49 49 49 49 50 50 52 51
38 39 37 36 35 37 37 39 33 37 36 37 38 38 38 35 40 42 44 43 38 35 35 34 33 34 35 37 40 40 40 41 42 40 40 43 47 51 52 53 53 52 51 52 52 53 54 55 56
34 34 34 34 35 36 37 39 36 34 37 37 40 42 42 36 38 39 41 37 36 38 37 35 35 37 37 37 38 38 39 40 40 39 39 41 45 49 51 53 55 55 54 53 54 55 54 55 56
36 35 35 36 37 37 37 39 41 42 41 41 40 42 41 39 40 40 37 36 36 37 39 37 37 39 39 38 41 43 42 41 39 40 41 44 47 48 50 52 54 56 57 58 58 57 56 55 56
36 37 38 40 39 38 38 39 40 40 37 36 35 39 42 43 43 42 39 42 41 39 40 42 41 40 41 43 46 45 40 40 42 43 45 49 54 56 56 55 55 55 55 56 58 58 58 58 57
37 37 35 37 41 41 41 40 39 38 38 38 39 42 45 46 46 44 43 43 44 42 40 41 44 48 48 44 40 38 39 41 45 47 50 56 60 58 59 61 62 61 58 57 57 58 59 58 59
40 38 39 41 43 44 44 41 39 37 42 43 41 45 47 49 50 50 49 48 47 44 46 52 49 45 42 41 42 44 45 47 51 56 59 58 59 60 60 64 67 66 64 62 61 61 61 61 61
21 23 26 31 35 35 31 27 24 26 26 27 28 31 35 36 38 38 38 39 39 42 44 47 45 42 43 46 47 48 51 55 60 61 59 61 62 63 64 68 70 71 70 68 66 65 65 64 65
24 25 25 29 28 29 30 25 23 23 24 27 31 36 40 40 40 40 38 39 41 41 40 41 39 42 47 49 51 53 58 61 63 64 67 69 68 66 62 63 63 65 69 69 68 68 68 67 66
Wind_Direction
213 210 207 203 201 194 188 192 206 209 214 211 208 207 208 197 194 201 244 272 297 319 349 347 342 23 30 13 21 35 43 61 51 29 20 12 7 360 355 352 350 355 356 357 353 348 345 340 337
213 213 209 205 202 196 189 198 209 209 213 219 215 206 213 207 208 208 222 260 278 287 292 317 312 315 331 334 344 346 342 333 334 335 341 342 343 346 342 335 331 330 331 332 333 335 338 340 339
212 213 211 207 201 194 193 204 213 213 212 223 222 220 217 218 212 215 228 261 270 270 279 293 285 301 305 307 308 310 314 315 311 313 314 317 322 325 328 329 328 326 323 325 324 325 328 331 334
213 214 215 206 199 196 194 209 214 219 219 219 222 229 245 251 224 227 241 250 263 276 271 274 273 281 289 294 299 297 297 299 301 302 305 306 315 317 314 315 320 320 319 318 320 321 322 324 329
213 215 215 207 202 199 208 210 210 219 226 222 220 221 235 244 243 245 256 259 257 270 274 279 278 283 285 291 290 292 295 296 299 301 301 305 308 311 312 312 309 308 310 312 314 315 317 323 328
211 214 216 211 208 213 207 212 215 221 225 228 226 226 229 239 249 247 247 249 258 260 269 277 275 279 283 286 289 291 293 295 295 295 297 300 303 303 303 300 298 299 301 303 306 308 310 316 320
211 213 215 212 212 215 216 206 216 220 226 228 233 232 237 241 241 242 249 251 252 255 267 268 273 275 278 281 283 282 282 284 286 290 292 293 293 293 295 294 295 297 297 301 304 304 301 299 301
213 212 213 212 212 217 219 203 216 222 224 228 233 236 240 239 239 240 244 236 243 254 257 268 273 274 277 280 283 284 283 281 278 279 280 281 281 280 281 286 287 284 289 292 295 296 300 298 297
211 213 212 213 210 215 219 212 216 224 228 229 233 238 241 247 253 259 250 241 235 252 264 269 277 279 280 282 282 281 277 276 276 275 273 274 274 274 272 273 275 277 279 282 275 275 279 282 286
212 215 212 213 209 210 218 217 220 223 230 232 236 239 240 244 250 260 263 263 275 273 275 276 271 273 275 276 278 277 280 275 274 270 269 270 269 267 268 269 274 275 271 269 283 284 268 267 271
206 210 212 210 204 210 218 216 220 223 228 232 235 240 245 249 254 259 255 253 252 259 262 268 273 273 273 274 276 274 272 272 271 267 264 261 267 262 262 265 270 279 277 280 273 271 288 283 271
216 208 213 214 212 212 211 220 216 228 229 236 241 245 251 255 255 257 256 254 252 254 257 259 263 266 267 268 268 266 260 263 261 262 262 258 262 262 261 259 257 264 271 277 274 280 283 283 284
219 224 220 219 221 224 223 223 225 228 231 241 244 247 251 252 253 250 248 240 253 260 262 265 267 270 269 269 271 268 262 258 256 259 260 257 260 258 259 261 261 261 263 256 265 272 277 278 284
231 232 231 227 231 228 228 223 228 234 245 249 254 255 258 262 256 257 260 262 264 264 265 266 268 270 269 268 267 266 267 265 261 262 264 258 263 259 258 259 259 263 261 265 255 260 266 269 276
230 230 235 244 249 246 240 236 243 242 248 249 254 259 260 260 263 268 270 270 272 275 276 274 266 261 264 265 268 268 267 262 259 259 261 260 257 261 257 256 257 266 265 261 263 261 261 265 269
229 229 231 232 236 243 247 247 249 251 250 251 251 252 256 260 261 262 265 268 272 275 278 280 281 282 275 266 265 267 263 260 262 258 259 259 257 261 261 262 259 257 258 267 267 268 269 271 276
228 230 233 233 237 242 247 248 243 244 242 241 242 246 249 254 258 260 262 266 268 270 273 274 276 278 278 278 278 277 268 267 267 265 262 265 262 258 257 261 258 251 258 263 269 271 268 273 278
233 234 231 229 233 235 241 244 239 239 242 240 242 245 248 254 258 260 265 266 268 272 271 272 272 271 273 274 271 270 269 266 263 266 269 269 269 267 266 267 266 262 264 269 268 269 271 271 271
228 227 225 223 227 229 232 238 239 238 246 249 249 248 250 253 257 261 263 264 264 264 266 268 270 271 273 271 268 270 269 267 265 263 263 264 265 268 268 266 264 265 265 266 266 266 267 268 269
224 224 224 228 229 231 232 236 242 239 245 251 253 252 250 251 258 261 262 261 263 265 267 269 270 271 272 272 270 268 265 264 264 264 265 267 266 265 265 266 269 270 269 269 270 269 267 268 269
233 235 235 233 235 238 235 238 244 248 247 251 254 255 256 257 251 253 259 263 265 264 264 261 263 265 265 266 264 264 264 265 267 266 265 266 269 272 272 273 273 272 271 271 270 269 269 269 269
234 236 235 234 234 242 247 245 246 250 251 248 249 251 252 256 256 259 262 265 263 260 258 253 258 262 264 264 264 264 265 267 271 274 276 276 276 276 275 274 273 273 273 270 269 269 268 270 271
235 237 239 240 237 242 249 253 249 252 253 256 256 255 256 257 258 257 262 260 260 259 259 259 261 262 260 257 258 258 261 262 264 269 273 274 275 276 277 278 277 275 272 270 270 271 271 271 271
237 240 243 243 244 243 243 250 250 251 254 253 259 263 265 259 245 248 251 254 257 258 261 264 265 264 260 256 254 254 257 263 268 273 278 282 282 279 278 278 279 280 278 276 274 273 272 272 272
235 237 243 246 247 249 249 252 256 255 254 257 256 258 260 257 251 252 258 258 258 263 265 265 264 262 260 257 251 250 255 264 274 276 278 283 285 283 280 277 274 275 278 279 278 276 274 272 271
241 241 243 248 249 252 252 249 251 256 258 258 256 255 256 258 258 259 260 264 263 261 262 264 262 261 260 258 256 256 263 269 269 272 278 283 284 286 279 279 278 274 273 274 275 277 277 275 274
237 242 245 250 252 252 252 252 256 261 267 264 256 256 257 257 258 258 257 258 259 255 254 255 259 264 268 269 273 274 269 270 274 278 280 283 281 279 280 284 283 280 279 277 276 276 276 276 276
241 244 245 249 253 254 256 259 264 265 263 265 264 260 258 258 259 259 258 254 252 249 250 256 260 260 265 267 269 274 275 276 277 277 277 278 280 283 285 286 285 281 280 280 279 277 276 276 277
233 238 238 243 249 252 257 258 257 256 255 259 255 260 261 262 260 258 253 254 257 258 258 255 257 265 268 269 270 272 272 273 273 277 278 280 282 286 285 285 285 285 283 281 279 278 275 275 275
242 246 246 248 254 259 262 262 268 267 265 260 258 255 256 258 260 263 264 263 264 266 264 264 267 263 267 269 267 268 270 273 277 282 285 285 285 287 287 285 284 282 282 280 277 276 275 274 274
Height
5864 5868 5872 5876 5882 5883 5886 5889 5889 5889 5891 5894 5896 5898 5900 5901 5904 5908 5909 5910 5912 5914 5914 5915 5917 5916 5917 5917 5918 5918 5918 5920 5920 5921 5920 5920 5920 5921 5921 5920 5920 5920 5920 5919 5919 5918 5917 5916 5916
5859 5863 5867 5871 5876 5880 5883 5885 5884 5887 5889 5892 5896 5896 5897 5898 5901 5905 5907 5908 5911 5912 5913 5914 5915 5916 5916 5917 5918 5918 5918 5919 5920 5920 5920 5920 5921 5921 5920 5920 5920 5920 5920 5919 5918 5917 5917 5916 5915
5853 5858 5863 5867 5872 5878 5881 5882 5882 5883 5887 5888 5892 5896 5896 5898 5900 5902 5905 5907 5910 5911 5911 5912 5914 5915 5916 5917 5917 5918 5918 5919 5919 5919 5919 5919 5920 5919 5919 5919 5918 5918 5918 5918 5917 5916 5916 5915 5914
5848 5853 5858 5863 5870 5875 5878 5877 5879 5880 5882 5884 5888 5894 5896 5897 5899 5901 5903 5906 5908 5909 5910 5911 5912 5913 5914 5915 5916 5917 5917 5918 5918 5918 5918 5918 5918 5918 5918 5918 5918 5917 5917 5916 5915 5915 5914 5914 5913
5840 5847 5852 5860 5866 5871 5871 5872 5875 5876 5877 5882 5885 5888 5891 5894 5897 5899 5901 5903 5905 5906 5907 5909 5910 5912 5912 5913 5914 5914 5915 5915 5915 5916 5916 5916 5916 5917 5917 5917 5916 5916 5915 5915 5914 5914 5913 5912 5911
5833 5840 5848 5856 5861 5858 5862 5865 5869 5872 5875 5878 5882 5886 5888 5891 5894 5898 5899 5901 5902 5903 5905 5906 5908 5909 5910 5910 5911 5911 5912 5912 5912 5913 5913 5914 5914 5913 5913 5913 5913 5913 5913 5912 5912 5912 5911 5909 5908
5827 5833 5842 5849 5852 5855 5856 5860 5864 5867 5869 5875 5878 5882 5885 5889 5891 5894 5897 5897 5898 5899 5901 5903 5904 5905 5907 5908 5908 5908 5908 5909 5909 5910 5910 5911 5911 5911 5910 5910 5910 5909 5909 5908 5908 5908 5907 5906 5905
5821 5826 5835 5841 5846 5851 5852 5854 5860 5861 5864 5870 5873 5877 5882 5884 5887 5890 5893 5893 5896 5897 5899 5900 5901 5902 5903 5904 5905 5905 5905 5905 5905 5906 5906 5906 5906 5907 5907 5906 5906 5906 5906 5906 5905 5904 5903 5903 5902
5814 5820 5829 5836 5841 5846 5847 5850 5854 5856 5860 5864 5868 5872 5876 5878 5882 5885 5890 5891 5894 5895 5896 5896 5898 5899 5900 5899 5900 5900 5900 5901 5901 5901 5901 5902 5901 5901 5901 5901 5901 5901 5900 5900 5899 5898 5898 5898 5898
5805 5814 5824 5832 5835 5837 5840 5843 5845 5852 5854 5858 5862 5866 5870 5873 5877 5881 5887 5888 5888 5888 5889 5891 5892 5892 5893 5893 5894 5895 5896 5896 5896 5896 5896 5896 5896 5897 5897 5897 5896 5896 5895 5894 5892 5892 5892 5892 5891
5802 5810 5818 5823 5824 5827 5833 5837 5839 5844 5847 5852 5855 5858 5864 5869 5874 5878 5882 5885 5885 5884 5884 5884 5886 5887 5887 5888 5888 5889 5890 5890 5890 5890 5890 5890 5890 5890 5891 5891 5891 5890 5889 5888 5887 5886 5885 5885 5884
5796 5801 5805 5813 5817 5821 5826 5830 5834 5839 5843 5845 5850 5855 5860 5864 5869 5871 5873 5877 5879 5880 5880 5880 5881 5881 5881 5881 5882 5883 5883 5883 5884 5883 5883 5884 5884 5885 5884 5883 5883 5883 5882 5882 5881 5880 5880 5878 5878
5786 5793 5798 5804 5808 5816 5819 5826 5829 5834 5838 5840 5845 5848 5853 5858 5861 5865 5865 5868 5871 5873 5872 5874 5874 5874 5874 5874 5874 5874 5875 5875 5875 5876 5876 5876 5876 5876 5876 5876 5876 5876 5875 5873 5873 5873 5872 5872 5872
5781 5785 5792 5799 5805 5810 5814 5823 5824 5832 5830 5835 5839 5844 5845 5845 5848 5852 5857 5859 5861 5863 5866 5867 5867 5866 5865 5865 5865 5867 5868 5867 5867 5868 5868 5868 5869 5868 5868 5868 5868 5866 5867 5866 5865 5865 5866 5865 5865
5774 5782 5788 5793 5799 5803 5809 5817 5820 5826 5827 5834 5836 5836 5837 5839 5839 5841 5844 5846 5848 5850 5851 5854 5858 5861 5859 5857 5858 5859 5860 5860 5859 5859 5858 5858 5858 5857 5857 5857 5859 5859 5858 5858 5858 5859 5857 5858 5857
5768 5774 5781 5788 5791 5795 5799 5809 5814 5817 5822 5825 5826 5826 5827 5829 5832 5835 5835 5837 5839 5838 5839 5840 5841 5842 5847 5850 5851 5852 5851 5850 5850 5850 5849 5848 5846 5846 5847 5849 5850 5849 5849 5848 5850 5849 5849 5850 5850
5762 5770 5775 5782 5786 5791 5794 5799 5804 5807 5810 5813 5814 5816 5819 5821 5822 5825 5830 5832 5833 5831 5832 5831 5833 5834 5836 5839 5839 5840 5841 5841 5840 5839 5837 5838 5838 5838 5839 5839 5839 5840 5841 5842 5841 5841 5840 5840 5841
5759 5765 5771 5777 5781 5785 5788 5789 5796 5798 5799 5803 5807 5811 5815 5814 5818 5821 5824 5824 5824 5824 5823 5823 5823 5825 5828 5830 5831 5832 5832 5832 5831 5830 5831 5830 5829 5828 5830 5829 5830 5830 5832 5832 5830 5831 5831 5831 5831
5754 5759 5764 5769 5772 5775 5778 5780 5786 5792 5793 5796 5802 5807 5808 5809 5810 5815 5817 5817 5816 5815 5817 5817 5817 5818 5819 5821 5822 5822 5822 5821 5821 5820 5819 5820 5818 5819 5819 5820 5819 5819 5821 5820 5820 5820 5820 5822 5820
5746 5751 5757 5762 5766 5768 5772 5775 5777 5785 5788 5790 5794 5798 5801 5801 5807 5805 5804 5804 5806 5808 5810 5811 5810 5810 5811 5812 5812 5811 5809 5807 5808 5809 5809 5810 5809 5809 5808 5808 5808 5808 5810 5810 5809 5810 5809 5810 5810
5741 5746 5752 5757 5759 5761 5765 5769 5773 5777 5784 5784 5785 5788 5791 5795 5797 5797 5798 5799 5800 5802 5803 5804 5802 5802 5803 5803 5802 5801 5799 5798 5799 5799 5799 5800 5800 5799 5799 5798 5798 5799 5799 5798 5797 5797 5797 5797 5799
5734 5737 5742 5747 5752 5754 5758 5763 5766 5767 5771 5775 5777 5779 5781 5785 5787 5788 5789 5791 5792 5793 5793 5794 5795 5795 5795 5794 5793 5792 5791 5790 5788 5787 5789 5790 5790 5789 5788 5788 5787 5786 5786 5786 5786 5785 5785 5784 5786
5728 5730 5734 5739 5744 5746 5750 5751 5759 5760 5762 5764 5767 5770 5772 5776 5777 5778 5780 5781 5783 5784 5785 5785 5786 5787 5786 5785 5784 5782 5781 5780 5779 5779 5780 5779 5778 5776 5775 5774 5774 5773 5773 5773 5773 5773 5772 5772 5772
5720 5724 5727 5731 5734 5739 5742 5743 5749 5753 5755 5757 5758 5760 5762 5764 5767 5769 5770 5773 5774 5774 5775 5776 5777 5777 5776 5775 5774 5772 5771 5770 5770 5771 5771 5769 5767 5766 5765 5764 5763 5761 5760 5759 5758 5757 5759 5759 5758
5713 5716 5719 5723 5726 5732 5735 5737 5740 5742 5744 5747 5751 5752 5752 5754 5757 5759 5762 5763 5764 5764 5764 5765 5766 5766 5766 5765 5764 5762 5762 5762 5763 5762 5760 5758 5754 5752 5751 5751 5750 5749 5748 5746 5744 5744 5745 5746 5746
5705 5709 5713 5714 5718 5722 5724 5727 5730 5731 5736 5739 5741 5741 5742 5744 5746 5747 5749 5749 5750 5751 5752 5753 5755 5755 5755 5753 5752 5753 5755 5753 5752 5751 5749 5746 5741 5737 5736 5736 5736 5735 5735 5733 5732 5731 5730 5731 5732
5696 5701 5707 5707 5708 5711 5715 5719 5722 5724 5725 5728 5730 5731 5731 5733 5734 5736 5738 5738 5739 5739 5740 5741 5740 5740 5741 5741 5742 5743 5741 5741 5740 5737 5735 5732 5727 5724 5721 5719 5718 5719 5720 5719 5719 5717 5716 5715 5715
5691 5695 5698 5698 5699 5702 5706 5710 5715 5717 5716 5715 5718 5719 5719 5721 5722 5723 5725 5725 5725 5726 5727 5728 5728 5728 5729 5730 5730 5730 5729 5727 5724 5723 5721 5717 5713 5713 5712 5709 5705 5703 5704 5704 5703 5702 5701 5700 5700
5683 5685 5688 5691 5691 5693 5698 5703 5707 5707 5709 5708 5708 5708 5708 5708 5708 5710 5711 5712 5714 5715 5717 5717 5718 5718 5720 5720 5718 5716 5714 5712 5709 5707 5706 5703 5701 5701 5700 5697 5692 5690 5688 5688 5688 5686 5684 5683 5683
5678 5680 5683 5684 5688 5690 5691 5697 5698 5699 5699 5699 5699 5699 5698 5699 5700 5702 5704 5704 5704 5705 5705 5705 5706 5706 5705 5705 5703 5701 5698 5696 5693 5690 5688 5686 5685 5684 5683 5680 5677 5674 5670 5669 5670 5668 5667 5666 5667